Home   Weather   Leon   Past weeks
Flag for Mexico

Past Weather in Leon, Guanajuato, Mexico — Yesterday and Last 2 Weeks

Now
79 °F

Scattered clouds.


Feels Like: 77 °F
Forecast: 80 / 53 °F
Wind: 16 mph from Southwest

Location: Del Bajio / Leon

Current Time: Feb 21, 2019 at 6:21:09 pm

Latest Report: Feb 21, 2019 at 4:47 pm


Visibility: 10 mi

Pressure: 30.09 "Hg (24.48 "Hg at 1808m altitude)

Humidity: 13%

Dew Point: 25 °F

Location of LeonLocation

Past Weather in Leon — Graph

°F

Leon Temperature Yesterday

Maximum temperature yesterday: 81 °F (at 2:50 pm)
Minimum temperature yesterday: 45 °F (at 5:40 am)
Average temperature yesterday: 63 °F

High & Low Weather Summary for the Past Weeks

 TemperatureHumidityPressure
High86 °F (Feb 16, 3:40 pm)88% (Feb 14, 5:48 am)30.44 "Hg (Feb 14, 5:48 am)
Low45 °F (Feb 10, 7:40 am)10% (Feb 7, 3:44 pm)29.66 "Hg (Feb 16, 5:42 pm)
Average65 °F44%30.12 "Hg
* Reported Feb 6 4:40 pm — Feb 21 4:47 pm, Leon. Weather by CustomWeather, © 2019

Note: Actual official high and low records may vary slightly from our data, if they occured in-between our weather recording intervals... More about our weather records

Advertising

Leon Weather History for the Previous 24 Hours

Scroll right to see more
 ConditionsComfort  
Time TempWeatherWind HumidityBarometerVisibility
4:47 pm
Thu, Feb 21
79 °FScattered clouds.16 mph13%30.09 "Hg10 mi
3:40 pm82 °FSunny.23 mph12%30.09 "Hg10 mi
2:47 pm81 °FSunny.18 mph14%30.06 "Hg10 mi
1:41 pm79 °FPassing clouds.9 mph15%30.12 "Hg10 mi
12:46 pm77 °FScattered clouds.7 mph18%30.16 "Hg10 mi
10:42 am70 °FPassing clouds.10 mph29%30.22 "Hg10 mi
9:44 am64 °FSunny.6 mph43%30.21 "Hg10 mi
8:43 am59 °FSunny.No wind55%29.84 "Hg9 mi
7:43 am45 °FSunny.5 mph71%30.17 "Hg10 mi
6:41 am45 °FClear.No wind71%30.16 "Hg8 mi
5:45 am46 °FClear.6 mph62%29.79 "Hg8 mi
4:48 am46 °FClear.5 mph57%30.13 "Hg8 mi
3:48 am46 °FClear.No wind53%30.14 "Hg8 mi
11:47 pm
Wed, Feb 20
50 °FClear.5 mph40%29.82 "Hg8 mi
10:43 pm55 °FClear.5 mph31%30.16 "Hg8 mi
9:41 pm61 °FClear.8 mph27%30.15 "Hg8 mi
8:41 pm66 °FClear.7 mph24%29.79 "Hg8 mi
7:40 pm68 °FClear.9 mph20%30.08 "Hg10 mi
6:42 pm72 °FSunny.13 mph15%30.06 "Hg10 mi
Weather by CustomWeather, © 2019

See weather overview